YAHSAT 1A

Last updated on Fri Jun 19 2026 17:09:30 GMT+0000 (Coordinated Universal Time)

1 37393U 11016B 26170.26176777 .00000000 00000+0 00000+0 0 9991 2 37393 0.0153 1.9212 0002945 91.3988 320.9150 1.00272487 42422
UTC large
Height (km)
Speed (km/s)
/
Latitude / Longitude
Inclination (degrees)
Orbital Period (minutes)
Azimuth
Elevation
Range (km)
Doppler Factor

Next 0 passes for location: London (51.5072 / 0.1276)

Sorry there are no passes over London.
YAHSAT 1A